Year,Month,Day,Hour,Minute,Value (Times are PST for temperature in C)
2015,06,27,00,00,18.70
2015,06,27,00,01,18.70
2015,06,27,00,02,18.70
2015,06,27,00,03,18.60
2015,06,27,00,04,18.60
2015,06,27,00,05,18.60
2015,06,27,00,06,18.60
2015,06,27,00,07,18.60
2015,06,27,00,08,18.50
2015,06,27,00,09,18.50
2015,06,27,00,10,18.50
2015,06,27,00,11,18.50
2015,06,27,00,12,18.50
2015,06,27,00,16,18.40
2015,06,27,00,17,18.40
2015,06,27,00,18,18.40
2015,06,27,00,19,18.30
2015,06,27,00,20,18.30
2015,06,27,00,21,18.30
2015,06,27,00,22,18.30
2015,06,27,00,23,18.30
2015,06,27,00,24,18.30
2015,06,27,00,25,18.20
2015,06,27,00,26,18.20
2015,06,27,00,27,18.20
2015,06,27,00,28,18.20
2015,06,27,00,29,18.20
2015,06,27,00,30,18.20
2015,06,27,00,31,18.20
2015,06,27,00,32,18.20
2015,06,27,00,33,18.20
2015,06,27,00,34,18.20
2015,06,27,00,35,18.20
2015,06,27,00,36,18.20
2015,06,27,00,37,18.20
2015,06,27,00,38,18.20
2015,06,27,00,39,18.10
2015,06,27,00,40,18.10
2015,06,27,00,41,18.10
2015,06,27,00,42,18.10
2015,06,27,00,43,18.10
2015,06,27,00,44,18.10
2015,06,27,00,45,18.00
2015,06,27,00,46,17.90
2015,06,27,00,47,17.90
2015,06,27,00,48,17.90
2015,06,27,00,49,17.90
2015,06,27,00,50,17.90
2015,06,27,00,51,17.90
2015,06,27,00,52,17.90
2015,06,27,00,53,17.90
2015,06,27,00,54,17.90
2015,06,27,00,55,17.90
2015,06,27,00,56,17.90
2015,06,27,00,57,17.90
2015,06,27,00,58,17.90
2015,06,27,00,59,17.90
2015,06,27,01,00,17.90
2015,06,27,01,01,17.90
2015,06,27,01,02,17.80
2015,06,27,01,03,17.80
2015,06,27,01,04,17.80
2015,06,27,01,05,17.80
2015,06,27,01,06,17.80
2015,06,27,01,07,17.80
2015,06,27,01,08,17.70
2015,06,27,01,09,17.70
2015,06,27,01,10,17.70
2015,06,27,01,11,17.70
2015,06,27,01,12,17.70
2015,06,27,01,13,17.60
2015,06,27,01,14,17.60
2015,06,27,01,15,17.60
2015,06,27,01,16,17.60
2015,06,27,01,17,17.60
2015,06,27,01,18,17.60
2015,06,27,01,19,17.60
2015,06,27,01,20,17.60
2015,06,27,01,21,17.60
2015,06,27,01,22,17.60
2015,06,27,01,23,17.50
2015,06,27,01,24,17.50
2015,06,27,01,25,17.50
2015,06,27,01,26,17.50
2015,06,27,01,27,17.50
2015,06,27,01,28,17.50
2015,06,27,01,29,17.50
2015,06,27,01,30,17.50
2015,06,27,01,31,17.50
2015,06,27,01,32,17.50
2015,06,27,01,33,17.40
2015,06,27,01,34,17.40
2015,06,27,01,35,17.40
2015,06,27,01,36,17.40
2015,06,27,01,37,17.40
2015,06,27,01,38,17.40
2015,06,27,01,39,17.40
2015,06,27,01,40,17.40
2015,06,27,01,41,17.40
2015,06,27,01,42,17.30
2015,06,27,01,43,17.30
2015,06,27,01,44,17.30
2015,06,27,01,45,17.30
2015,06,27,01,46,17.30
2015,06,27,01,47,17.30
2015,06,27,01,48,17.30
2015,06,27,01,49,17.30
2015,06,27,01,50,17.30
2015,06,27,01,51,17.30
2015,06,27,01,52,17.30
2015,06,27,01,53,17.30
2015,06,27,01,54,17.30
2015,06,27,01,55,17.30
2015,06,27,01,56,17.30
2015,06,27,01,57,17.30
2015,06,27,01,58,17.30
2015,06,27,01,59,17.30
2015,06,27,02,00,17.30
2015,06,27,02,01,17.30
2015,06,27,02,02,17.30
2015,06,27,02,03,17.30
2015,06,27,02,04,17.30
2015,06,27,02,05,17.30
2015,06,27,02,06,17.30
2015,06,27,02,07,17.30
2015,06,27,02,08,17.30
2015,06,27,02,09,17.30
2015,06,27,02,10,17.30
2015,06,27,02,11,17.30
2015,06,27,02,12,17.30
2015,06,27,02,13,17.30
2015,06,27,02,14,17.30
2015,06,27,02,15,17.30
2015,06,27,02,16,17.30
2015,06,27,02,17,17.30
2015,06,27,02,18,17.30
2015,06,27,02,19,17.30
2015,06,27,02,20,17.20
2015,06,27,02,21,17.20
2015,06,27,02,22,17.20
2015,06,27,02,23,17.20
2015,06,27,02,24,17.20
2015,06,27,02,25,17.20
2015,06,27,02,26,17.20
2015,06,27,02,27,17.20
2015,06,27,02,28,17.20
2015,06,27,02,29,17.20
2015,06,27,02,30,17.20
2015,06,27,02,31,17.20
2015,06,27,02,32,17.20
2015,06,27,02,33,17.20
2015,06,27,02,34,17.20
2015,06,27,02,35,17.20
2015,06,27,02,36,17.10
2015,06,27,02,37,17.10
2015,06,27,02,38,17.10
2015,06,27,02,39,17.10
2015,06,27,02,40,17.10
2015,06,27,02,41,17.10
2015,06,27,02,42,17.10
2015,06,27,02,43,17.10
2015,06,27,02,44,17.10
2015,06,27,02,45,17.10
2015,06,27,02,46,17.10
2015,06,27,02,47,17.10
2015,06,27,02,48,17.10
2015,06,27,02,49,17.10
2015,06,27,02,50,17.10
2015,06,27,02,51,17.00
2015,06,27,02,52,17.00
2015,06,27,02,53,17.00
2015,06,27,02,54,17.00
2015,06,27,02,55,17.00
2015,06,27,02,56,17.00
2015,06,27,02,57,17.00
2015,06,27,02,58,17.00
2015,06,27,02,59,17.00
2015,06,27,03,00,17.00
2015,06,27,03,01,17.00
2015,06,27,03,02,17.00
2015,06,27,03,03,17.00
2015,06,27,03,04,16.90
2015,06,27,03,05,16.90
2015,06,27,03,06,16.90
2015,06,27,03,07,16.90
2015,06,27,03,08,16.90
2015,06,27,03,09,16.90
2015,06,27,03,10,16.90
2015,06,27,03,11,16.80
2015,06,27,03,12,16.80
2015,06,27,03,13,16.80
2015,06,27,03,14,16.80
2015,06,27,03,15,16.80
2015,06,27,03,16,16.80
2015,06,27,03,17,16.80
2015,06,27,03,18,16.70
2015,06,27,03,19,16.70
2015,06,27,03,20,16.70
2015,06,27,03,21,16.70
2015,06,27,03,22,16.70
2015,06,27,03,23,16.70
2015,06,27,03,24,16.70
2015,06,27,03,25,16.70
2015,06,27,03,26,16.60
2015,06,27,03,27,16.60
2015,06,27,03,28,16.50
2015,06,27,03,29,16.40
2015,06,27,03,30,16.40
2015,06,27,03,31,16.40
2015,06,27,03,32,16.40
2015,06,27,03,33,16.40
2015,06,27,03,34,16.40
2015,06,27,03,35,16.30
2015,06,27,03,36,16.30
2015,06,27,03,37,16.30
2015,06,27,03,38,16.30
2015,06,27,03,39,16.30
2015,06,27,03,40,16.30
2015,06,27,03,41,16.20
2015,06,27,03,42,16.20
2015,06,27,03,43,16.20
2015,06,27,03,44,16.20
2015,06,27,03,45,16.20
2015,06,27,03,46,16.20
2015,06,27,03,47,16.10
2015,06,27,03,48,16.10
2015,06,27,03,49,16.10
2015,06,27,03,50,16.10
2015,06,27,03,51,16.10
2015,06,27,03,52,16.10
2015,06,27,03,53,16.10
2015,06,27,03,54,16.10
2015,06,27,03,55,16.10
2015,06,27,03,56,16.00
2015,06,27,03,57,15.90
2015,06,27,03,58,15.90
2015,06,27,03,59,15.90
2015,06,27,04,00,15.90
2015,06,27,04,01,15.90
2015,06,27,04,02,15.80
2015,06,27,04,03,15.80
2015,06,27,04,04,15.80
2015,06,27,04,05,15.80
2015,06,27,04,06,15.80
2015,06,27,04,07,15.80
2015,06,27,04,08,15.80
2015,06,27,04,09,15.80
2015,06,27,04,10,15.80
2015,06,27,04,11,15.80
2015,06,27,04,12,15.80
2015,06,27,04,13,15.70
2015,06,27,04,14,15.70
2015,06,27,04,15,15.70
2015,06,27,04,16,15.70
2015,06,27,04,17,15.70
2015,06,27,04,18,15.70
2015,06,27,04,19,15.70
2015,06,27,04,20,15.70
2015,06,27,04,21,15.70
2015,06,27,04,22,15.70
2015,06,27,04,23,15.70
2015,06,27,04,24,15.70
2015,06,27,04,25,15.70
2015,06,27,04,26,15.70
2015,06,27,04,27,15.70
2015,06,27,04,28,15.70
2015,06,27,04,29,15.70
2015,06,27,04,30,15.70
2015,06,27,04,31,15.70
2015,06,27,04,32,15.70
2015,06,27,04,33,15.70
2015,06,27,04,34,15.70
2015,06,27,04,35,15.70
2015,06,27,04,36,15.70
2015,06,27,04,37,15.70
2015,06,27,04,38,15.70
2015,06,27,04,39,15.70
2015,06,27,04,40,15.70
2015,06,27,04,41,15.70
2015,06,27,04,42,15.70
2015,06,27,04,43,15.70
2015,06,27,04,44,15.70
2015,06,27,04,45,15.70
2015,06,27,04,46,15.70
2015,06,27,04,47,15.70
2015,06,27,04,48,15.70
2015,06,27,04,49,15.70
2015,06,27,04,50,15.70
2015,06,27,04,51,15.70
2015,06,27,04,52,15.70
2015,06,27,04,53,15.70
2015,06,27,04,54,15.70
2015,06,27,04,55,15.70
2015,06,27,04,56,15.70
2015,06,27,04,57,15.70
2015,06,27,04,58,15.70
2015,06,27,04,59,15.70
2015,06,27,05,00,15.70
2015,06,27,05,01,15.70
2015,06,27,05,02,15.70
2015,06,27,05,03,15.70
2015,06,27,05,04,15.70
2015,06,27,05,05,15.70
2015,06,27,05,06,15.70
2015,06,27,05,07,15.70
2015,06,27,05,08,15.70
2015,06,27,05,09,15.70
2015,06,27,05,10,15.70
2015,06,27,05,11,15.70
2015,06,27,05,12,15.70
2015,06,27,05,13,15.70
2015,06,27,05,14,15.70
2015,06,27,05,15,15.70
2015,06,27,05,16,15.70
2015,06,27,05,17,15.70
2015,06,27,05,18,15.70
2015,06,27,05,19,15.70
2015,06,27,05,20,15.70
2015,06,27,05,21,15.70
2015,06,27,05,22,15.70
2015,06,27,05,23,15.70
2015,06,27,05,24,15.70
2015,06,27,05,25,15.70
2015,06,27,05,26,15.70
2015,06,27,05,27,15.70
2015,06,27,05,28,15.70
2015,06,27,05,29,15.70
2015,06,27,05,30,15.70
2015,06,27,05,31,15.70
2015,06,27,05,32,15.70
2015,06,27,05,33,15.70
2015,06,27,05,34,15.70
2015,06,27,05,35,15.70
2015,06,27,05,36,15.60
2015,06,27,05,37,15.60
2015,06,27,05,38,15.60
2015,06,27,05,39,15.60
2015,06,27,05,40,15.60
2015,06,27,05,41,15.60
2015,06,27,05,42,15.60
2015,06,27,05,43,15.60
2015,06,27,05,44,15.70
2015,06,27,05,45,15.70
2015,06,27,05,46,15.70
2015,06,27,05,47,15.70
2015,06,27,05,48,15.70
2015,06,27,05,49,15.70
2015,06,27,05,50,15.70
2015,06,27,05,51,15.70
2015,06,27,05,52,15.70
2015,06,27,05,53,15.80
2015,06,27,05,54,15.80
2015,06,27,05,55,15.80
2015,06,27,05,56,15.80
2015,06,27,05,57,15.80
2015,06,27,05,58,15.80
2015,06,27,05,59,15.80
2015,06,27,06,00,15.80
2015,06,27,06,01,15.80
2015,06,27,06,02,15.80
2015,06,27,06,03,15.80
2015,06,27,06,04,15.80
2015,06,27,06,05,15.80
2015,06,27,06,06,15.80
2015,06,27,06,07,15.80
2015,06,27,06,08,15.90
2015,06,27,06,09,15.90
2015,06,27,06,10,15.90
2015,06,27,06,11,15.90
2015,06,27,06,12,15.90
2015,06,27,06,13,15.90
2015,06,27,06,14,15.90
2015,06,27,06,15,16.00
2015,06,27,06,16,16.10
2015,06,27,06,17,16.10
2015,06,27,06,18,16.10
2015,06,27,06,19,16.10
2015,06,27,06,20,16.10
2015,06,27,06,21,16.10
2015,06,27,06,22,16.10
2015,06,27,06,23,16.10
2015,06,27,06,24,16.10
2015,06,27,06,25,16.10
2015,06,27,06,26,16.10
2015,06,27,06,27,16.20
2015,06,27,06,28,16.20
2015,06,27,06,29,16.20
2015,06,27,06,30,16.20
2015,06,27,06,31,16.30
2015,06,27,06,32,16.30
2015,06,27,06,33,16.30
2015,06,27,06,34,16.30
2015,06,27,06,35,16.40
2015,06,27,06,36,16.40
2015,06,27,06,37,16.40
2015,06,27,06,38,16.40
2015,06,27,06,39,16.40
2015,06,27,06,40,16.50
2015,06,27,06,41,16.60
2015,06,27,06,42,16.60
2015,06,27,06,43,16.60
2015,06,27,06,44,16.60
2015,06,27,06,45,16.70
2015,06,27,06,46,16.70
2015,06,27,06,47,16.70
2015,06,27,06,48,16.70
2015,06,27,06,49,16.70
2015,06,27,06,50,16.70
2015,06,27,06,51,16.70
2015,06,27,06,52,16.80
2015,06,27,06,53,16.80
2015,06,27,06,54,16.80
2015,06,27,06,55,16.90
2015,06,27,06,56,16.90
2015,06,27,06,57,16.90
2015,06,27,06,58,17.00
2015,06,27,06,59,17.00
2015,06,27,07,00,17.00
2015,06,27,07,01,17.00
2015,06,27,07,02,17.10
2015,06,27,07,03,17.10
2015,06,27,07,04,17.20
2015,06,27,07,05,17.30
2015,06,27,07,06,17.40
2015,06,27,07,07,17.50
2015,06,27,07,08,17.70
2015,06,27,07,09,17.80
2015,06,27,07,10,17.90
2015,06,27,07,11,18.10
2015,06,27,07,12,18.30
2015,06,27,07,13,18.40
2015,06,27,07,14,18.50
2015,06,27,07,15,18.60
2015,06,27,07,16,18.70
2015,06,27,07,17,18.80
2015,06,27,07,18,18.90
2015,06,27,07,19,19.00
2015,06,27,07,20,19.10
2015,06,27,07,21,19.20
2015,06,27,07,22,19.30
2015,06,27,07,23,19.40
2015,06,27,07,24,19.40
2015,06,27,07,25,19.60
2015,06,27,07,26,19.70
2015,06,27,07,27,19.70
2015,06,27,07,28,19.80
2015,06,27,07,29,19.80
2015,06,27,07,30,19.90
2015,06,27,07,31,19.90
2015,06,27,07,32,20.00
2015,06,27,07,33,20.10
2015,06,27,07,34,20.20
2015,06,27,07,35,20.20
2015,06,27,07,36,20.30
2015,06,27,07,37,20.30
2015,06,27,07,38,20.30
2015,06,27,07,39,20.40
2015,06,27,07,40,20.50
2015,06,27,07,41,20.50
2015,06,27,07,42,20.50
2015,06,27,07,43,20.60
2015,06,27,07,44,20.60
2015,06,27,07,45,20.60
2015,06,27,07,46,20.70
2015,06,27,07,47,20.70
2015,06,27,07,48,20.70
2015,06,27,07,49,20.80
2015,06,27,07,50,20.80
2015,06,27,07,51,20.80
2015,06,27,07,52,20.80
2015,06,27,07,53,20.90
2015,06,27,07,54,20.90
2015,06,27,07,55,20.90
2015,06,27,07,56,20.90
2015,06,27,07,57,20.90
2015,06,27,07,58,21.00
2015,06,27,07,59,21.00
2015,06,27,08,00,21.00
2015,06,27,08,01,21.00
2015,06,27,08,02,21.10
2015,06,27,08,03,21.10
2015,06,27,08,04,21.20
2015,06,27,08,05,21.20
2015,06,27,08,06,21.20
2015,06,27,08,07,21.30
2015,06,27,08,08,21.30
2015,06,27,08,09,21.30
2015,06,27,08,10,21.30
2015,06,27,08,11,21.40
2015,06,27,08,12,21.40
2015,06,27,08,13,21.40
2015,06,27,08,14,21.50
2015,06,27,08,15,21.60
2015,06,27,08,16,21.60
2015,06,27,08,17,21.60
2015,06,27,08,18,21.60
2015,06,27,08,19,21.60
2015,06,27,08,20,21.70
2015,06,27,08,21,21.70
2015,06,27,08,22,21.70
2015,06,27,08,23,21.70
2015,06,27,08,24,21.70
2015,06,27,08,25,21.80
2015,06,27,08,26,21.80
2015,06,27,08,27,21.80
2015,06,27,08,28,21.90
2015,06,27,08,29,21.90
2015,06,27,08,30,21.90
2015,06,27,08,31,22.00
2015,06,27,08,32,22.00
2015,06,27,08,33,22.10
2015,06,27,08,34,22.10
2015,06,27,08,35,22.20
2015,06,27,08,36,22.20
2015,06,27,08,37,22.30
2015,06,27,08,38,22.30
2015,06,27,08,39,22.40
2015,06,27,08,40,22.40
2015,06,27,08,41,22.50
2015,06,27,08,42,22.50
2015,06,27,08,43,22.60
2015,06,27,08,44,22.60
2015,06,27,08,45,22.60
2015,06,27,08,46,22.70
2015,06,27,08,47,22.70
2015,06,27,08,48,22.80
2015,06,27,08,49,22.80
2015,06,27,08,50,22.90
2015,06,27,08,51,22.90
2015,06,27,08,52,22.90
2015,06,27,08,53,23.00
2015,06,27,08,54,23.10
2015,06,27,08,55,23.10
2015,06,27,08,56,23.10
2015,06,27,08,57,23.10
2015,06,27,08,58,23.20
2015,06,27,08,59,23.20
2015,06,27,09,00,23.20
2015,06,27,09,01,23.20
2015,06,27,09,02,23.30
2015,06,27,09,03,23.30
2015,06,27,09,04,23.40
2015,06,27,09,05,23.40
2015,06,27,09,06,23.50
2015,06,27,09,07,23.60
2015,06,27,09,08,23.60
2015,06,27,09,09,23.70
2015,06,27,09,10,23.70
2015,06,27,09,11,23.70
2015,06,27,09,12,23.70
2015,06,27,09,13,23.70
2015,06,27,09,14,23.80
2015,06,27,09,15,23.80
2015,06,27,09,16,23.90
2015,06,27,09,17,24.00
2015,06,27,09,18,24.10
2015,06,27,09,19,24.10
2015,06,27,09,20,24.10
2015,06,27,09,21,24.20
2015,06,27,09,22,24.30
2015,06,27,09,23,24.30
2015,06,27,09,24,24.30
2015,06,27,09,25,24.40
2015,06,27,09,26,24.40
2015,06,27,09,27,24.50
2015,06,27,09,28,24.50
2015,06,27,09,29,24.60
2015,06,27,09,30,24.60
2015,06,27,09,31,24.60
2015,06,27,09,32,24.60
2015,06,27,09,33,24.70
2015,06,27,09,34,24.70
2015,06,27,09,35,24.70
2015,06,27,09,36,24.70
2015,06,27,09,37,24.70
2015,06,27,09,38,24.70
2015,06,27,09,39,24.70
2015,06,27,09,40,24.70
2015,06,27,09,41,24.70
2015,06,27,09,42,24.70
2015,06,27,09,43,24.80
2015,06,27,09,44,24.80
2015,06,27,09,45,24.80
2015,06,27,09,46,24.80
2015,06,27,09,47,24.90
2015,06,27,09,48,24.90
2015,06,27,09,49,24.90
2015,06,27,09,50,24.80
2015,06,27,09,51,24.80
2015,06,27,09,52,24.70
2015,06,27,09,53,24.70
2015,06,27,09,54,24.70
2015,06,27,09,55,24.70
2015,06,27,09,56,24.60
2015,06,27,09,57,24.60
2015,06,27,09,58,24.50
2015,06,27,09,59,24.50
2015,06,27,10,00,24.40
2015,06,27,10,01,24.40
2015,06,27,10,02,24.30
2015,06,27,10,03,24.20
2015,06,27,10,04,24.10
2015,06,27,10,05,24.10
2015,06,27,10,06,24.10
2015,06,27,10,07,24.00
2015,06,27,10,08,23.90
2015,06,27,10,09,23.80
2015,06,27,10,10,23.70
2015,06,27,10,11,23.70
2015,06,27,10,12,23.70
2015,06,27,10,13,23.70
2015,06,27,10,14,23.70
2015,06,27,10,15,23.70
2015,06,27,10,16,23.70
2015,06,27,10,17,23.70
2015,06,27,10,18,23.70
2015,06,27,10,19,23.70
2015,06,27,10,20,23.60
2015,06,27,10,21,23.60
2015,06,27,10,22,23.60
2015,06,27,10,23,23.60
2015,06,27,10,24,23.50
2015,06,27,10,25,23.40
2015,06,27,10,26,23.40
2015,06,27,10,27,23.30
2015,06,27,10,28,23.30
2015,06,27,10,29,23.30
2015,06,27,10,30,23.30
2015,06,27,10,31,23.20
2015,06,27,10,32,23.20
2015,06,27,10,33,23.10
2015,06,27,10,34,23.10
2015,06,27,10,35,23.10
2015,06,27,10,36,23.00
2015,06,27,10,37,22.90
2015,06,27,10,38,22.90
2015,06,27,10,39,22.90
2015,06,27,10,40,22.90
2015,06,27,10,41,23.00
2015,06,27,10,42,23.10
2015,06,27,10,43,23.10
2015,06,27,10,44,23.30
2015,06,27,10,45,23.40
2015,06,27,10,46,23.50
2015,06,27,10,47,23.60
2015,06,27,10,48,23.70
2015,06,27,10,49,23.70
2015,06,27,10,50,23.80
2015,06,27,10,51,23.90
2015,06,27,10,52,24.00
2015,06,27,10,53,24.10
2015,06,27,10,54,24.10
2015,06,27,10,55,24.20
2015,06,27,10,56,24.20
2015,06,27,10,57,24.20
2015,06,27,10,58,24.20
2015,06,27,10,59,24.20
2015,06,27,11,00,24.30
2015,06,27,11,01,24.30
2015,06,27,11,02,24.40
2015,06,27,11,03,24.40
2015,06,27,11,04,24.50
2015,06,27,11,05,24.50
2015,06,27,11,06,24.50
2015,06,27,11,07,24.60
2015,06,27,11,08,24.60
2015,06,27,11,09,24.70
2015,06,27,11,10,24.80
2015,06,27,11,11,24.90
2015,06,27,11,12,25.00
2015,06,27,11,13,25.00
2015,06,27,11,14,25.10
2015,06,27,11,15,25.10
2015,06,27,11,16,25.10
2015,06,27,11,17,25.10
2015,06,27,11,18,25.30
2015,06,27,11,19,25.30
2015,06,27,11,20,25.40
2015,06,27,11,21,25.50
2015,06,27,11,22,25.50
2015,06,27,11,23,25.50
2015,06,27,11,24,25.40
2015,06,27,11,25,25.40
2015,06,27,11,26,25.30
2015,06,27,11,27,25.30
2015,06,27,11,28,25.30
2015,06,27,11,29,25.30
2015,06,27,11,30,25.30
2015,06,27,11,31,25.30
2015,06,27,11,32,25.40
2015,06,27,11,33,25.50
2015,06,27,11,34,25.50
2015,06,27,11,35,25.60
2015,06,27,11,36,25.70
2015,06,27,11,37,25.80
2015,06,27,11,38,25.90
2015,06,27,11,39,25.90
2015,06,27,11,40,26.00
2015,06,27,11,41,25.90
2015,06,27,11,42,25.90
2015,06,27,11,43,25.90
2015,06,27,11,44,25.90
2015,06,27,11,45,25.90
2015,06,27,11,46,25.80
2015,06,27,11,47,25.90
2015,06,27,11,48,26.00
2015,06,27,11,49,26.00
2015,06,27,11,50,26.00
2015,06,27,11,51,26.00
2015,06,27,11,52,26.00
2015,06,27,11,53,26.10
2015,06,27,11,54,26.20
2015,06,27,11,55,26.20
2015,06,27,11,56,26.30
2015,06,27,11,57,26.20
2015,06,27,11,58,26.20
2015,06,27,11,59,26.20
2015,06,27,12,00,26.20
2015,06,27,12,01,26.20
2015,06,27,12,02,26.10
2015,06,27,12,03,26.10
2015,06,27,12,04,26.00
2015,06,27,12,05,26.00
2015,06,27,12,06,26.00
2015,06,27,12,07,25.90
2015,06,27,12,08,25.90
2015,06,27,12,09,25.90
2015,06,27,12,10,25.90
2015,06,27,12,11,25.90
2015,06,27,12,12,25.90
2015,06,27,12,13,26.00
2015,06,27,12,14,26.00
2015,06,27,12,15,26.10
2015,06,27,12,16,26.30
2015,06,27,12,17,26.30
2015,06,27,12,18,26.40
2015,06,27,12,19,26.40
2015,06,27,12,20,26.50
2015,06,27,12,21,26.60
2015,06,27,12,22,26.60
2015,06,27,12,23,26.60
2015,06,27,12,24,26.70
2015,06,27,12,25,26.70
2015,06,27,12,26,26.70
2015,06,27,12,27,26.60
2015,06,27,12,28,26.60
2015,06,27,12,29,26.60
2015,06,27,12,30,26.60
2015,06,27,12,31,26.60
2015,06,27,12,32,26.60
2015,06,27,12,33,26.70
2015,06,27,12,34,26.80
2015,06,27,12,35,26.90
2015,06,27,12,36,27.00
2015,06,27,12,37,27.10
2015,06,27,12,38,27.20
2015,06,27,12,39,27.30
2015,06,27,12,40,27.30
2015,06,27,12,41,27.20
2015,06,27,12,42,27.20
2015,06,27,12,43,27.20
2015,06,27,12,44,27.10
2015,06,27,12,45,26.90
2015,06,27,12,46,26.80
2015,06,27,12,47,26.90
2015,06,27,12,48,26.90
2015,06,27,12,49,26.80
2015,06,27,12,50,26.90
2015,06,27,12,51,26.90
2015,06,27,12,52,27.10
2015,06,27,12,53,27.00
2015,06,27,12,54,26.90
2015,06,27,12,55,26.90
2015,06,27,12,56,27.00
2015,06,27,12,57,27.10
2015,06,27,12,58,27.20
2015,06,27,12,59,27.30
2015,06,27,13,00,27.30
2015,06,27,13,01,27.40
2015,06,27,13,02,27.50
2015,06,27,13,03,27.60
2015,06,27,13,04,27.80
2015,06,27,13,05,28.00
2015,06,27,13,06,28.10
2015,06,27,13,07,28.20
2015,06,27,13,08,28.20
2015,06,27,13,09,28.20
2015,06,27,13,10,28.40
2015,06,27,13,11,28.60
2015,06,27,13,12,28.70
2015,06,27,13,13,28.80
2015,06,27,13,14,28.90
2015,06,27,13,15,29.00
2015,06,27,13,16,29.20
2015,06,27,13,17,29.50
2015,06,27,13,18,29.60
2015,06,27,13,19,29.60
2015,06,27,13,20,29.60
2015,06,27,13,21,29.50
2015,06,27,13,22,29.60
2015,06,27,13,23,29.50
2015,06,27,13,24,29.50
2015,06,27,13,25,29.40
2015,06,27,13,26,29.40
2015,06,27,13,27,29.40
2015,06,27,13,28,29.40
2015,06,27,13,29,29.50
2015,06,27,13,30,29.50
2015,06,27,13,31,29.50
2015,06,27,13,32,29.40
2015,06,27,13,33,29.40
2015,06,27,13,34,29.40
2015,06,27,13,35,29.60
2015,06,27,13,36,29.80
2015,06,27,13,37,29.90
2015,06,27,13,38,30.20
2015,06,27,13,39,30.30
2015,06,27,13,40,30.30
2015,06,27,13,41,30.30
2015,06,27,13,42,30.30
2015,06,27,13,43,30.30
2015,06,27,13,44,30.30
2015,06,27,13,45,30.40
2015,06,27,13,46,30.40
2015,06,27,13,47,30.60
2015,06,27,13,48,30.50
2015,06,27,13,49,30.30
2015,06,27,13,50,30.10
2015,06,27,13,51,30.00
2015,06,27,13,52,29.90
2015,06,27,13,53,30.10
2015,06,27,13,54,30.20
2015,06,27,13,55,30.30
2015,06,27,13,56,30.30
2015,06,27,13,57,30.20
2015,06,27,13,58,30.20
2015,06,27,13,59,30.20
2015,06,27,14,00,30.30
2015,06,27,14,01,30.40
2015,06,27,14,02,30.60
2015,06,27,14,03,30.60
2015,06,27,14,04,30.80
2015,06,27,14,05,30.90
2015,06,27,14,06,31.00
2015,06,27,14,07,31.00
2015,06,27,14,08,30.90
2015,06,27,14,09,30.80
2015,06,27,14,10,30.60
2015,06,27,14,11,30.60
2015,06,27,14,12,30.40
2015,06,27,14,13,30.30
2015,06,27,14,14,30.20
2015,06,27,14,15,30.20
2015,06,27,14,16,30.30
2015,06,27,14,17,30.40
2015,06,27,14,18,30.40
2015,06,27,14,19,30.40
2015,06,27,14,20,30.30
2015,06,27,14,21,30.20
2015,06,27,14,22,30.20
2015,06,27,14,23,30.10
2015,06,27,14,24,30.00
2015,06,27,14,25,29.80
2015,06,27,14,26,29.60
2015,06,27,14,27,29.40
2015,06,27,14,28,29.10
2015,06,27,14,29,28.90
2015,06,27,14,30,28.80
2015,06,27,14,31,28.90
2015,06,27,14,32,28.90
2015,06,27,14,33,28.90
2015,06,27,14,34,28.90
2015,06,27,14,35,29.10
2015,06,27,14,36,29.10
2015,06,27,14,37,29.20
2015,06,27,14,38,29.20
2015,06,27,14,39,29.20
2015,06,27,14,40,29.20
2015,06,27,14,41,29.30
2015,06,27,14,42,29.40
2015,06,27,14,43,29.40
2015,06,27,14,44,29.30
2015,06,27,14,45,29.30
2015,06,27,14,46,29.40
2015,06,27,14,47,29.30
2015,06,27,14,48,29.30
2015,06,27,14,49,29.30
2015,06,27,14,50,29.40
2015,06,27,14,51,29.50
2015,06,27,14,52,29.50
2015,06,27,14,53,29.50
2015,06,27,14,54,29.60
2015,06,27,14,55,29.50
2015,06,27,14,56,29.50
2015,06,27,14,57,29.70
2015,06,27,14,58,29.80
2015,06,27,14,59,29.80
2015,06,27,15,00,29.80
2015,06,27,15,01,29.80
2015,06,27,15,02,29.80
2015,06,27,15,03,29.60
2015,06,27,15,04,29.50
2015,06,27,15,05,29.40
2015,06,27,15,06,29.30
2015,06,27,15,07,29.20
2015,06,27,15,08,29.30
2015,06,27,15,09,29.30
2015,06,27,15,10,29.30
2015,06,27,15,11,29.50
2015,06,27,15,12,29.80
2015,06,27,15,13,30.00
2015,06,27,15,14,30.10
2015,06,27,15,15,30.10
2015,06,27,15,16,30.10
2015,06,27,15,17,30.10
2015,06,27,15,18,30.20
2015,06,27,15,19,30.30
2015,06,27,15,20,30.30
2015,06,27,15,21,30.30
2015,06,27,15,22,30.30
2015,06,27,15,23,30.30
2015,06,27,15,24,30.40
2015,06,27,15,25,30.70
2015,06,27,15,26,30.90
2015,06,27,15,27,30.90
2015,06,27,15,28,31.00
2015,06,27,15,29,31.10
2015,06,27,15,30,31.20
2015,06,27,15,31,31.30
2015,06,27,15,32,31.40
2015,06,27,15,33,31.50
2015,06,27,15,34,31.60
2015,06,27,15,35,31.60
2015,06,27,15,36,31.50
2015,06,27,15,37,31.40
2015,06,27,15,38,31.30
2015,06,27,15,39,31.30
2015,06,27,15,40,31.30
2015,06,27,15,41,31.30
2015,06,27,15,42,31.20
2015,06,27,15,43,31.20
2015,06,27,15,44,31.10
2015,06,27,15,45,31.00
2015,06,27,15,46,31.00
2015,06,27,15,47,30.90
2015,06,27,15,48,30.80
2015,06,27,15,49,30.70
2015,06,27,15,50,30.60
2015,06,27,15,51,30.60
2015,06,27,15,52,30.40
2015,06,27,15,53,30.40
2015,06,27,15,54,30.30
2015,06,27,15,55,30.30
2015,06,27,15,56,30.40
2015,06,27,15,57,30.40
2015,06,27,15,58,30.40
2015,06,27,15,59,30.40
2015,06,27,16,00,30.40
2015,06,27,16,01,30.40
2015,06,27,16,02,30.60
2015,06,27,16,03,30.60
2015,06,27,16,04,30.60
2015,06,27,16,05,30.70
2015,06,27,16,06,30.70
2015,06,27,16,07,30.80
2015,06,27,16,08,30.80
2015,06,27,16,09,30.80
2015,06,27,16,10,30.80
2015,06,27,16,11,30.80
2015,06,27,16,12,30.70
2015,06,27,16,13,30.50
2015,06,27,16,14,30.40
2015,06,27,16,15,30.40
2015,06,27,16,16,30.50
2015,06,27,16,17,30.60
2015,06,27,16,18,30.60
2015,06,27,16,19,30.60
2015,06,27,16,20,30.50
2015,06,27,16,21,30.40
2015,06,27,16,22,30.40
2015,06,27,16,23,30.50
2015,06,27,16,24,30.60
2015,06,27,16,25,30.60
2015,06,27,16,26,30.60
2015,06,27,16,27,30.60
2015,06,27,16,28,30.40
2015,06,27,16,29,30.40
2015,06,27,16,30,30.30
2015,06,27,16,31,30.30
2015,06,27,16,32,30.30
2015,06,27,16,33,30.30
2015,06,27,16,34,30.40
2015,06,27,16,35,30.40
2015,06,27,16,36,30.50
2015,06,27,16,37,30.60
2015,06,27,16,38,30.70
2015,06,27,16,39,30.80
2015,06,27,16,40,30.90
2015,06,27,16,41,31.00
2015,06,27,16,42,31.00
2015,06,27,16,43,31.10
2015,06,27,16,44,31.20
2015,06,27,16,45,31.20
2015,06,27,16,46,31.20
2015,06,27,16,47,31.20
2015,06,27,16,48,31.20
2015,06,27,16,49,31.20
2015,06,27,16,50,31.10
2015,06,27,16,51,31.00
2015,06,27,16,52,30.90
2015,06,27,16,53,30.80
2015,06,27,16,54,30.80
2015,06,27,16,55,30.80
2015,06,27,16,56,30.80
2015,06,27,16,57,30.80
2015,06,27,16,58,30.80
2015,06,27,16,59,30.80
2015,06,27,17,00,30.90
2015,06,27,17,01,30.90
2015,06,27,17,02,30.90
2015,06,27,17,03,30.80
2015,06,27,17,04,30.70
2015,06,27,17,05,30.60
2015,06,27,17,06,30.40
2015,06,27,17,07,30.30
2015,06,27,17,08,30.20
2015,06,27,17,09,30.20
2015,06,27,17,10,30.20
2015,06,27,17,11,30.20
2015,06,27,17,12,30.20
2015,06,27,17,13,30.20
2015,06,27,17,14,30.20
2015,06,27,17,15,30.10
2015,06,27,17,16,30.10
2015,06,27,17,17,30.10
2015,06,27,17,18,30.10
2015,06,27,17,19,30.20
2015,06,27,17,20,30.20
2015,06,27,17,21,30.20
2015,06,27,17,22,30.30